Vorticity
6 7 9 13 15 13 9 3 3 4 5 9 5 7 13 8 9 9 7 9 6 9 15 9 2 4 6 3 7 8 7 8 3 5 5 -1 6 8 7 9 7 10 10 10 13 15 19 14 11 13 11 11 9 7 6 6 10 9 7 7 7 9 9 7 7 6 6 5 4 4 4 4 4 4 4 5 5 5 6 7 7 7 7 6 5 4
5 6 7 12 16 15 12 6 5 6 7 8 -1 -1 9 7 9 11 7 12 9 2 10 16 5 -0 3 5 9 3 -3 6 3 -0 3 -0 5 10 6 3 3 9 10 9 11 14 17 12 12 14 10 11 10 6 6 5 8 9 7 7 7 8 8 8 7 6 5 4 4 4 5 4 4 4 4 4 5 5 6 8 8 7 6 6 4 4
8 8 4 8 16 17 14 9 6 5 7 10 0 -2 6 5 6 7 1 6 12 3 4 16 14 3 1 2 5 0 -2 8 5 -1 3 2 6 11 3 1 7 10 8 7 10 12 13 12 12 12 10 10 8 7 7 5 6 8 8 7 7 7 7 8 7 6 6 5 4 4 4 4 4 4 4 4 5 6 7 8 9 7 6 5 4 4
10 9 7 7 13 17 17 11 8 7 6 9 5 2 1 1 8 7 1 8 12 4 -1 7 15 12 6 2 1 3 4 7 4 2 6 2 1 5 4 4 6 7 6 5 7 11 12 15 14 10 11 12 8 7 6 4 5 7 9 9 7 7 7 8 8 6 5 6 5 4 4 4 4 4 4 4 5 6 7 9 9 8 6 5 4 5
8 5 6 8 8 12 17 14 10 8 8 8 6 6 3 1 10 11 6 9 6 6 7 4 13 18 8 3 5 5 4 4 5 8 11 6 -2 3 10 7 3 6 7 4 6 12 13 14 14 9 11 13 7 6 7 5 4 5 7 8 6 7 7 6 6 6 5 5 4 4 4 4 4 4 4 5 6 7 8 9 9 8 7 5 4 4
7 5 6 6 6 8 11 14 13 9 8 9 6 7 9 3 -0 -0 3 9 7 13 16 -2 -3 12 9 1 0 3 8 9 7 7 9 10 2 5 13 6 2 8 7 4 7 11 12 14 15 10 10 12 7 6 7 5 3 4 5 6 7 6 6 6 5 5 5 4 4 3 4 4 4 4 5 6 7 8 8 8 8 8 6 5 5 5
6 6 6 4 5 6 7 11 13 11 7 8 9 6 8 8 0 -6 -5 3 1 0 16 14 2 9 11 6 5 4 2 1 5 7 6 11 9 3 7 3 0 7 6 4 10 11 11 13 15 13 11 9 8 6 6 6 4 4 5 6 8 7 6 6 5 4 4 4 4 3 3 3 3 4 4 5 6 8 8 7 7 6 6 5 4 5
6 6 6 4 4 5 7 8 9 13 10 8 10 7 7 8 7 2 -7 1 5 -7 5 16 6 8 13 14 16 8 -0 -2 6 13 8 7 8 1 2 4 1 3 5 4 12 16 11 9 10 13 14 7 5 7 6 7 6 4 5 5 7 8 7 6 5 5 5 4 4 4 4 4 4 5 5 5 6 8 7 6 6 5 5 5 5 5
8 8 7 6 5 5 7 8 8 10 9 10 10 7 9 6 7 6 -13 -10 10 8 1 -8 -8 16 26 16 12 8 5 4 7 19 16 1 4 9 6 7 6 4 6 5 10 15 12 9 9 12 15 8 4 7 6 7 7 5 4 5 6 8 8 7 5 4 4 4 3 4 4 5 6 6 6 6 6 7 6 5 6 5 4 5 5 5
8 9 9 8 6 7 10 9 9 9 8 11 10 8 8 5 11 14 -6 -20 -8 12 16 -0 -1 17 15 5 9 9 3 2 7 13 8 -3 6 20 13 8 13 8 5 7 8 13 15 11 9 11 14 9 4 6 7 7 7 7 7 6 6 8 8 8 7 7 6 4 4 5 5 6 6 7 6 6 6 6 6 5 5 5 5 5 5 5
7 7 6 8 7 7 10 9 8 8 9 10 10 11 9 3 7 14 12 -4 -16 -4 1 -5 5 8 -3 -1 8 15 14 15 15 6 8 13 11 17 10 5 15 10 3 8 7 10 18 14 8 10 13 10 8 7 7 7 6 7 10 9 8 8 8 9 8 8 7 6 6 5 6 7 7 7 6 6 6 5 5 5 5 4 4 4 4 4
8 6 4 5 7 7 8 8 8 6 6 9 10 12 10 5 3 4 14 10 -4 -2 -9 -15 -6 -14 -12 7 4 5 14 11 7 8 18 12 -9 -4 3 -2 6 7 -0 3 7 10 18 20 12 8 12 14 13 10 6 7 6 6 10 13 12 9 8 9 9 8 8 7 7 6 6 7 7 7 6 5 5 5 5 4 4 4 3 3 3 4
4 7 7 4 4 7 8 6 6 5 4 7 8 10 10 10 9 2 4 5 0 6 3 -0 -5 -26 -17 11 5 -2 2 -3 4 20 18 -8 -20 4 12 0 3 9 9 6 5 10 16 20 16 7 12 19 15 9 6 6 5 5 9 13 15 12 10 10 9 8 8 7 7 6 6 7 7 6 5 5 5 4 5 4 4 5 4 4 4 4
3 5 7 7 3 4 8 6 3 3 4 6 5 8 12 8 4 5 7 7 5 7 9 8 2 -7 2 12 6 2 1 2 12 23 17 -2 3 23 19 11 10 8 13 10 4 9 11 12 14 10 13 18 12 6 7 7 6 5 8 11 14 14 13 12 10 9 9 8 7 7 7 7 7 6 5 5 5 5 5 5 5 5 5 6 6 5
4 2 2 8 8 5 6 7 6 7 7 8 6 6 12 6 -2 4 10 11 11 8 8 7 -2 1 10 8 8 11 6 9 9 2 3 7 13 12 2 9 16 6 7 10 4 6 9 8 11 13 13 13 9 7 8 8 6 5 7 9 11 12 13 12 10 9 8 8 7 7 8 8 7 7 6 6 5 6 7 7 7 6 6 7 7 8
4 2 5 9 10 8 7 7 8 9 7 9 7 3 6 8 7 7 7 13 21 15 9 4 -3 5 14 6 6 13 11 16 20 8 4 10 13 8 2 11 20 10 5 11 10 7 10 12 11 13 14 12 10 9 9 9 7 5 6 8 9 9 10 10 9 9 7 7 7 7 8 8 7 7 6 6 6 6 7 7 7 7 7 8 8 9
7 3 4 5 7 9 8 6 7 6 6 8 6 5 6 8 14 13 5 12 23 23 20 10 -3 1 17 19 14 18 20 16 18 17 16 19 13 5 8 14 19 16 3 4 13 8 6 10 12 14 11 8 10 11 11 11 9 7 6 7 9 7 7 7 7 7 6 6 6 7 8 8 8 7 5 5 5 5 6 6 6 7 7 9 8 8
11 10 11 6 0 6 10 9 12 6 2 4 3 7 12 7 8 8 1 1 7 12 17 21 20 12 13 25 22 17 23 19 13 14 19 24 12 -6 1 15 25 26 10 5 16 10 3 9 16 15 9 6 9 9 11 12 9 9 8 8 9 7 7 7 6 6 5 6 6 7 8 8 8 8 6 5 4 4 6 6 7 8 6 6 6 6
6 11 28 28 6 2 7 7 13 10 2 6 8 9 14 6 0 4 1 -4 1 10 9 9 21 20 8 15 22 17 15 13 12 14 12 16 11 -4 1 14 15 9 -2 2 12 6 4 12 10 7 10 10 8 7 12 12 10 10 10 9 9 7 8 8 6 7 6 6 6 6 7 8 9 10 10 8 6 5 7 7 7 8 6 5 5 4
2 -5 12 36 28 13 14 11 10 13 6 3 7 9 13 11 3 6 10 3 -2 6 15 11 5 6 3 -1 4 11 12 7 9 13 10 6 5 2 2 3 1 -0 -2 2 6 2 5 12 8 8 13 9 3 6 11 12 12 13 12 11 10 9 9 8 7 8 7 7 7 7 9 10 11 13 14 14 12 9 8 6 6 7 6 5 5 5
-2 -4 -7 16 37 30 25 17 3 9 13 -1 -4 1 5 11 9 6 10 13 3 -9 3 23 21 16 22 17 5 6 15 17 10 10 15 8 2 3 2 -2 4 12 12 7 5 4 4 8 11 16 19 10 2 4 8 10 12 13 13 12 12 10 8 8 8 8 7 7 8 9 10 10 10 10 11 11 10 9 8 6 5 5 4 4 4 4
-13 3 3 -0 20 29 26 21 2 -3 13 12 3 1 -0 4 10 8 4 8 12 -4 -18 -4 11 13 18 24 23 17 20 26 15 8 15 15 13 13 4 1 6 13 19 12 1 -0 5 11 16 19 18 8 3 3 5 9 11 11 13 12 10 10 8 8 8 7 7 7 7 7 7 7 7 6 6 5 5 5 5 5 5 4 4 5 5 5
-23 -16 17 9 2 16 22 27 18 -3 1 18 16 8 4 -1 2 10 10 6 11 8 -7 -19 -14 2 7 4 8 7 7 16 12 7 12 13 19 19 9 11 13 13 22 18 4 5 9 13 16 15 6 -3 -1 5 5 7 10 11 12 11 8 8 7 7 6 6 7 7 6 6 5 5 5 4 4 4 3 4 4 4 5 6 8 9 9 11
-6 -31 14 23 -4 6 20 25 33 16 0 13 19 10 8 4 3 10 11 10 11 9 9 -3 -19 -0 17 7 1 1 5 16 12 7 11 13 16 14 6 12 12 8 13 10 10 15 8 10 18 11 2 4 8 9 6 6 7 8 11 11 8 6 6 5 5 5 7 7 6 6 5 5 5 5 5 4 4 5 5 5 7 9 11 12 12 11
20 -31 -10 17 -8 -3 15 11 25 32 10 8 16 12 10 6 7 13 6 7 15 9 13 10 -15 -10 13 9 -0 -3 -2 9 14 10 6 7 17 14 4 5 4 5 10 8 12 12 -1 5 17 6 2 13 16 10 4 4 5 6 9 10 8 7 6 4 5 6 6 5 5 5 5 5 6 6 7 7 7 6 7 9 10 12 13 12 10 8
28 -12 -18 11 -5 -11 7 -0 10 31 14 3 11 13 14 6 2 16 12 2 7 6 12 18 -2 -6 10 5 1 11 11 12 25 27 10 2 12 9 0 6 6 5 16 18 14 9 3 9 15 7 2 6 10 8 6 6 8 10 11 9 8 8 7 6 7 7 5 4 3 4 4 5 6 8 8 9 9 9 10 11 10 11 11 8 6 5
23 9 -11 -1 -13 -17 4 2 10 36 27 10 9 8 14 9 -4 8 13 3 6 6 10 20 11 4 10 0 -6 15 27 20 23 29 13 1 7 4 -1 6 4 -0 10 19 14 9 13 17 13 10 7 4 6 8 7 8 9 10 12 12 11 9 8 8 8 6 5 4 3 3 4 6 7 7 7 7 9 10 11 11 9 10 9 6 5 5
14 20 2 -3 -12 -18 -2 3 6 23 28 32 28 11 15 14 -6 -4 8 6 8 8 10 23 21 11 17 16 1 4 21 21 21 28 16 -2 0 7 8 6 0 -3 -1 4 5 7 16 19 11 7 6 3 3 4 4 6 6 6 9 11 13 14 11 9 7 5 6 6 6 6 7 9 8 7 7 6 7 10 10 11 9 8 8 5 5 6
10 20 13 8 1 -8 -4 4 7 -2 -0 30 42 19 18 26 6 -4 6 10 7 4 8 20 20 6 8 19 13 4 11 13 12 15 7 -3 -1 3 4 1 -3 -0 1 1 4 4 8 14 11 6 5 2 3 3 3 4 3 4 6 8 11 13 12 9 5 3 4 5 6 7 9 11 9 8 7 5 7 10 10 10 8 6 7 5 4 6
11 15 13 0 -6 -2 -3 -2 15 12 -9 6 31 21 13 24 24 9 4 11 14 8 2 5 10 -0 -10 0 9 6 3 1 1 4 1 3 10 7 3 3 1 2 4 5 7 3 1 7 9 8 6 3 4 5 4 5 4 5 5 6 10 10 9 8 5 4 5 6 8 9 9 10 9 7 6 5 7 9 8 8 7 6 6 4 4 7
8 8 15 0 -16 -6 -3 -14 3 15 -2 -8 12 23 14 12 27 26 6 1 12 14 6 -1 7 11 1 -3 2 3 3 2 2 9 10 6 6 5 7 6 2 4 8 7 6 4 1 3 6 9 9 5 4 4 3 4 4 6 7 7 8 9 7 6 6 6 7 8 11 13 11 10 10 8 6 5 6 8 8 7 6 5 5 4 5 7
5 2 11 10 -5 -10 -12 -14 -5 8 12 2 -6 10 23 12 13 26 16 0 -0 9 13 4 2 13 14 11 12 6 3 5 -0 0 9 10 4 5 11 9 -1 0 7 8 9 10 11 8 6 7 8 5 4 4 5 5 4 4 6 5 5 5 5 7 8 6 6 8 10 12 14 14 13 11 7 6 6 8 8 6 4 5 5 6 6 7
6 2 4 11 10 -1 -17 -19 -8 0 6 -3 -24 -10 23 17 3 19 28 17 1 1 17 15 -0 -1 4 12 26 24 9 8 7 -1 1 9 7 4 10 16 12 3 -2 -1 3 9 16 15 10 11 13 11 8 6 5 8 7 3 4 4 4 4 3 6 7 5 7 11 10 9 10 13 15 14 10 7 8 8 7 6 5 6 6 5 5 7
6 2 5 9 10 8 -6 -19 -10 -1 0 0 -14 -14 14 20 5 9 20 23 12 -4 4 16 7 5 5 -8 -7 6 7 8 10 2 1 10 11 8 9 14 19 14 5 1 2 6 11 10 8 14 17 14 14 11 9 11 11 7 6 5 3 3 4 6 7 5 3 7 10 9 7 9 14 16 13 8 8 8 8 7 6 5 6 6 6 8
11 2 6 12 7 11 0 -24 -17 -3 4 14 -5 -26 6 30 15 8 8 15 27 12 0 13 15 16 23 6 -13 -7 3 9 9 3 5 10 10 12 14 13 16 17 10 4 3 8 11 8 7 12 13 10 7 7 7 10 11 9 7 5 4 3 2 5 9 7 1 1 7 10 12 13 13 14 14 10 8 8 9 8 6 5 6 7 7 7
11 6 8 8 5 17 9 -17 -15 -11 -5 18 1 -18 19 30 2 7 10 3 27 30 6 10 14 6 14 19 13 8 4 6 5 -2 -1 6 9 13 14 13 14 14 12 10 9 12 15 10 6 8 12 12 8 6 7 6 6 8 6 5 7 6 3 4 7 7 5 4 4 12 24 25 14 11 13 10 8 8 8 10 10 7 6 6 7 9
7 6 16 9 -2 14 19 8 4 -11 -14 7 -12 -23 27 29 -14 -2 10 -4 13 21 2 6 5 -3 17 34 24 10 5 3 -2 -5 2 8 9 11 10 10 12 10 9 11 11 13 13 8 4 6 11 14 12 11 14 10 7 8 6 3 5 5 5 6 5 6 7 5 4 16 31 30 16 10 12 10 9 9 8 10 12 10 9 7 7 9
14 5 12 13 1 3 14 25 21 -7 -1 31 3 -26 19 38 1 -6 -0 -2 9 6 4 21 4 -24 1 33 24 9 10 8 0 1 9 7 2 4 5 6 8 6 5 4 2 7 12 10 10 13 13 15 15 14 15 13 11 12 9 6 6 6 6 7 6 5 4 3 8 20 29 22 12 12 12 10 11 12 11 13 13 13 11 8 6 8
22 16 13 14 6 -5 2 28 31 -1 2 41 29 -6 13 35 21 5 -4 -2 8 -5 -11 20 27 -6 -19 -3 10 12 12 10 7 9 12 6 1 2 2 2 3 4 5 5 2 7 13 12 12 13 11 12 15 14 15 15 15 16 16 14 11 9 9 10 6 4 4 3 8 18 22 13 6 9 10 9 11 13 13 14 13 11 10 8 7 7
16 18 20 18 8 -1 1 12 18 7 1 15 15 3 14 31 26 8 -12 -22 -16 -18 -31 -20 11 19 1 -7 4 10 7 8 11 13 13 7 0 -2 -2 -0 3 3 5 5 2 5 9 9 8 8 9 10 9 10 13 15 15 17 19 20 18 14 13 11 6 4 5 6 8 15 18 13 9 9 10 11 14 13 11 10 9 8 9 8 7 5
26 15 17 17 9 13 15 -5 -10 13 22 15 11 4 4 14 15 5 -4 -20 -32 -24 -19 -26 -21 -5 2 5 5 3 9 21 20 13 10 7 4 5 3 0 1 4 5 4 4 5 5 5 7 7 8 8 8 10 11 11 12 13 15 17 18 17 17 15 10 6 5 7 13 14 11 10 11 11 10 12 14 12 10 8 7 6 5 4 4 5
35 26 19 15 5 13 18 -15 -28 14 36 17 10 18 19 17 9 6 15 9 -13 -15 -6 -7 -8 -2 7 15 10 1 6 16 15 11 10 9 9 10 8 4 3 5 5 4 6 6 2 3 5 5 6 7 7 9 9 7 9 9 10 12 14 16 18 18 17 13 8 10 17 14 6 5 7 7 7 8 7 6 7 7 6 5 3 2 4 6
11 27 30 24 7 7 11 -22 -47 -9 34 21 -2 12 42 44 15 -0 14 20 7 0 -3 -7 -4 1 5 11 12 6 5 8 10 13 11 9 8 7 8 9 7 6 6 6 6 4 3 4 5 5 7 6 5 6 6 5 6 6 6 8 10 11 12 13 18 19 13 13 16 13 6 4 4 6 7 6 4 4 4 5 5 4 3 4 6 6
-6 5 22 31 21 10 11 -0 -30 -33 8 33 6 -16 10 38 28 12 18 21 11 7 6 0 -3 -1 5 12 11 9 9 9 8 8 3 1 3 4 4 7 9 6 4 4 3 1 2 5 5 5 7 7 7 8 8 5 6 7 6 6 7 8 7 6 11 15 14 13 13 10 9 7 5 6 6 5 4 4 4 3 3 3 3 5 6 6
9 -2 3 14 24 16 0 2 -1 -24 -22 14 22 -7 -19 3 21 23 26 30 27 21 19 15 5 -1 4 11 11 10 10 7 3 3 3 -0 1 3 1 1 7 9 6 4 4 3 3 4 4 3 5 6 6 8 8 8 8 9 9 8 8 9 8 5 6 10 13 13 10 8 9 9 6 5 6 6 6 5 4 4 2 1 3 5 5 4
27 19 12 -1 9 26 14 -1 2 -3 -18 -15 5 12 -2 -12 -3 8 14 20 24 23 26 27 19 7 1 5 10 11 9 6 3 4 6 1 -1 3 4 1 3 9 10 8 7 5 3 3 3 3 4 5 4 3 5 7 9 8 9 10 9 9 9 7 6 8 11 12 11 8 6 5 6 6 6 6 6 4 5 4 2 2 4 4 3 2
24 24 31 15 -1 9 22 20 10 8 4 -10 -14 5 15 2 -9 -6 2 11 16 17 18 20 22 19 8 4 11 15 12 8 5 5 7 4 -0 2 6 4 4 8 11 11 9 8 7 5 4 5 5 5 4 3 3 4 7 7 6 6 7 8 8 8 8 9 10 11 12 10 5 3 4 5 5 5 4 3 3 3 3 4 4 3 2 1
21 17 24 32 21 0 -1 12 15 11 12 2 -15 -11 4 6 -0 -3 -1 2 10 18 18 13 17 25 18 7 6 9 9 8 6 6 7 5 1 2 5 4 3 5 8 11 11 10 9 8 6 6 7 6 6 5 4 4 5 5 5 5 6 6 6 7 8 10 11 12 12 11 9 5 4 3 2 3 2 2 3 4 4 4 3 2 2 2
23 24 15 18 30 23 4 -0 7 14 19 13 0 -1 5 4 0 4 4 -5 -7 5 16 14 14 20 23 17 11 7 6 6 5 7 8 5 2 3 3 2 3 4 6 10 12 12 11 11 10 8 8 9 8 6 6 6 5 5 5 5 5 5 4 6 6 7 9 10 11 11 10 8 6 4 3 3 1 0 2 4 4 4 4 4 3 3
11 25 27 16 17 23 20 12 8 12 18 14 5 6 12 7 -3 -2 5 5 -3 -5 1 7 10 14 17 19 17 15 14 11 6 5 5 3 2 3 3 2 2 4 6 8 11 13 12 11 12 11 9 9 8 7 7 7 6 6 5 4 5 5 4 5 6 7 7 8 10 12 11 9 9 7 4 3 4 4 3 2 3 4 5 5 6 6
7 11 24 28 20 13 14 15 10 6 7 7 1 0 4 3 -4 -10 -9 -4 -4 -8 -12 -9 -2 5 10 13 14 14 14 13 12 11 8 4 4 6 7 5 4 5 8 8 9 10 11 10 11 12 11 10 9 8 7 7 7 6 4 4 5 5 4 5 7 7 6 7 9 11 10 10 11 11 6 3 5 8 7 4 3 5 6 6 7 7
Height
5842 5842 5845 5848 5850 5852 5854 5856 5859 5861 5862 5864 5866 5867 5870 5871 5873 5877 5879 5877 5876 5877 5878 5880 5882 5882 5882 5884 5884 5885 5886 5886 5886 5884 5884 5889 5891 5890 5890 5890 5889 5889 5890 5891 5892 5892 5893 5893 5893 5893 5893 5895 5897 5899 5902 5904 5906 5908 5909 5910 5911 5913 5915 5916 5917 5918 5919 5920 5922 5924 5925 5926 5928 5929 5931 5932 5933 5934 5935 5935 5936 5937 5938 5939 5939 5940
5837 5840 5845 5847 5848 5850 5852 5854 5855 5857 5859 5862 5863 5865 5870 5872 5873 5876 5877 5876 5875 5876 5877 5878 5880 5881 5881 5882 5882 5882 5884 5885 5886 5884 5882 5885 5890 5890 5889 5890 5889 5890 5890 5891 5891 5892 5892 5893 5893 5893 5893 5894 5896 5899 5901 5903 5906 5907 5909 5910 5911 5913 5914 5915 5916 5917 5918 5920 5922 5923 5925 5926 5928 5929 5930 5931 5933 5934 5935 5935 5936 5937 5938 5939 5939 5940
5835 5841 5845 5845 5845 5846 5848 5850 5852 5854 5856 5859 5860 5862 5866 5871 5874 5876 5875 5874 5873 5874 5876 5876 5878 5880 5881 5882 5881 5881 5883 5884 5884 5884 5882 5883 5887 5889 5888 5889 5891 5891 5891 5890 5891 5891 5892 5893 5893 5893 5894 5894 5895 5898 5900 5902 5905 5907 5908 5910 5911 5912 5914 5915 5916 5917 5919 5920 5922 5923 5925 5927 5928 5929 5930 5931 5932 5933 5934 5935 5936 5937 5938 5939 5939 5940
5835 5841 5842 5840 5841 5842 5844 5846 5848 5850 5852 5855 5857 5859 5862 5867 5873 5876 5876 5873 5871 5872 5874 5876 5877 5878 5879 5880 5881 5881 5881 5882 5882 5883 5883 5881 5884 5888 5888 5889 5891 5892 5891 5890 5890 5891 5891 5893 5894 5894 5894 5894 5896 5898 5900 5902 5905 5906 5908 5910 5911 5912 5913 5915 5916 5918 5919 5920 5922 5923 5925 5927 5928 5929 5930 5931 5932 5933 5934 5935 5936 5937 5938 5939 5939 5940
5834 5838 5836 5836 5837 5839 5841 5843 5845 5847 5849 5851 5854 5857 5860 5864 5868 5873 5876 5874 5871 5871 5873 5874 5874 5875 5876 5877 5878 5879 5880 5881 5881 5882 5883 5881 5881 5885 5887 5887 5889 5890 5890 5889 5890 5890 5891 5892 5894 5894 5894 5895 5896 5897 5900 5902 5904 5906 5907 5909 5910 5911 5913 5915 5916 5918 5919 5920 5922 5923 5925 5927 5928 5929 5929 5930 5932 5933 5934 5935 5936 5937 5938 5939 5939 5940
5831 5833 5831 5832 5834 5836 5838 5839 5842 5844 5846 5849 5851 5855 5859 5862 5865 5869 5873 5874 5871 5869 5870 5872 5871 5871 5873 5875 5876 5877 5878 5879 5880 5880 5881 5881 5879 5881 5885 5886 5886 5889 5889 5888 5890 5890 5890 5892 5894 5895 5895 5895 5896 5897 5899 5901 5903 5904 5906 5908 5909 5911 5913 5915 5916 5918 5919 5920 5922 5923 5924 5926 5927 5928 5929 5930 5932 5933 5934 5935 5936 5937 5938 5938 5939 5940
5826 5827 5827 5830 5832 5834 5835 5836 5839 5842 5843 5845 5849 5854 5856 5858 5861 5864 5869 5873 5870 5868 5869 5869 5869 5870 5870 5872 5874 5876 5876 5877 5878 5878 5878 5880 5878 5878 5883 5885 5885 5886 5887 5887 5889 5890 5890 5892 5894 5896 5897 5895 5895 5896 5898 5900 5902 5904 5906 5907 5909 5911 5913 5914 5916 5917 5919 5920 5921 5922 5924 5925 5926 5927 5929 5931 5932 5933 5934 5935 5936 5936 5937 5938 5939 5940
5822 5824 5825 5827 5830 5831 5832 5834 5837 5839 5840 5843 5848 5851 5853 5854 5857 5860 5864 5869 5870 5870 5869 5866 5867 5868 5868 5869 5871 5873 5874 5874 5876 5877 5877 5877 5876 5877 5881 5884 5885 5885 5885 5886 5889 5890 5890 5892 5893 5896 5897 5896 5894 5894 5897 5900 5902 5904 5906 5907 5908 5910 5912 5914 5916 5917 5918 5919 5920 5922 5923 5925 5926 5928 5930 5931 5932 5933 5934 5935 5936 5936 5937 5938 5939 5940
5820 5821 5822 5825 5827 5828 5830 5834 5836 5837 5837 5841 5845 5847 5849 5852 5854 5857 5859 5862 5867 5869 5868 5866 5865 5865 5865 5867 5868 5870 5871 5872 5873 5876 5877 5875 5874 5876 5878 5881 5883 5884 5884 5885 5887 5889 5889 5891 5892 5894 5896 5896 5893 5893 5895 5898 5901 5903 5905 5906 5908 5910 5912 5914 5915 5916 5917 5918 5920 5921 5923 5924 5926 5928 5929 5931 5932 5933 5934 5934 5935 5936 5937 5938 5939 5940
5816 5817 5819 5821 5823 5825 5829 5832 5833 5834 5836 5840 5842 5843 5846 5849 5851 5854 5855 5856 5859 5860 5861 5865 5866 5865 5865 5866 5867 5867 5868 5870 5872 5874 5875 5874 5873 5874 5876 5878 5881 5882 5883 5885 5886 5888 5888 5889 5890 5891 5893 5895 5894 5891 5892 5896 5900 5902 5905 5906 5908 5910 5911 5913 5914 5916 5916 5918 5919 5921 5922 5924 5926 5928 5929 5930 5931 5932 5934 5934 5935 5936 5937 5939 5939 5940
5811 5813 5814 5815 5818 5822 5826 5829 5829 5831 5834 5836 5838 5840 5843 5845 5847 5850 5851 5853 5853 5850 5853 5860 5864 5865 5864 5864 5865 5866 5866 5868 5870 5871 5872 5872 5870 5872 5873 5875 5879 5882 5882 5884 5885 5887 5887 5887 5888 5889 5891 5895 5895 5892 5890 5894 5898 5902 5905 5906 5908 5909 5911 5912 5914 5915 5916 5917 5919 5920 5922 5924 5925 5927 5928 5930 5931 5932 5933 5935 5936 5937 5938 5939 5940 5940
5805 5805 5807 5810 5814 5819 5822 5824 5825 5828 5830 5832 5834 5837 5840 5841 5844 5846 5847 5849 5846 5844 5850 5855 5859 5859 5859 5861 5865 5867 5865 5866 5867 5869 5871 5871 5869 5871 5872 5872 5876 5881 5882 5883 5884 5886 5887 5886 5887 5888 5890 5894 5896 5894 5891 5893 5897 5901 5904 5906 5907 5909 5910 5912 5913 5914 5916 5917 5919 5920 5921 5923 5925 5926 5928 5929 5930 5932 5933 5935 5936 5937 5938 5939 5940 5940
5800 5801 5804 5807 5810 5815 5818 5819 5821 5823 5825 5827 5830 5833 5835 5838 5841 5841 5841 5841 5840 5843 5849 5853 5855 5854 5854 5859 5863 5865 5865 5865 5865 5867 5870 5870 5868 5869 5871 5870 5873 5877 5880 5882 5883 5885 5886 5885 5886 5886 5888 5892 5895 5894 5891 5892 5896 5900 5902 5904 5907 5909 5910 5911 5913 5914 5916 5917 5918 5920 5921 5923 5924 5926 5927 5928 5930 5931 5933 5934 5936 5937 5938 5939 5940 5940
5797 5798 5800 5803 5807 5811 5813 5814 5816 5818 5821 5824 5826 5828 5831 5834 5834 5834 5836 5837 5839 5842 5846 5850 5852 5851 5852 5857 5860 5862 5863 5864 5865 5865 5867 5867 5866 5867 5870 5869 5869 5871 5876 5880 5880 5883 5884 5884 5885 5886 5887 5891 5892 5891 5889 5891 5895 5899 5901 5903 5905 5907 5909 5911 5912 5913 5915 5916 5918 5919 5921 5923 5924 5925 5927 5928 5930 5931 5933 5934 5935 5936 5938 5939 5940 5940
5791 5792 5796 5800 5803 5807 5808 5811 5814 5817 5819 5821 5823 5826 5829 5830 5830 5832 5834 5836 5839 5842 5845 5848 5848 5847 5850 5854 5856 5859 5860 5861 5863 5864 5865 5864 5864 5866 5868 5868 5868 5867 5872 5877 5879 5882 5884 5884 5885 5886 5887 5889 5889 5887 5887 5890 5894 5897 5900 5902 5904 5906 5908 5910 5911 5913 5914 5916 5917 5919 5921 5922 5924 5925 5926 5928 5929 5931 5932 5934 5935 5936 5937 5938 5939 5940
5785 5788 5794 5798 5799 5803 5805 5808 5812 5814 5815 5818 5821 5823 5824 5827 5830 5832 5834 5837 5840 5842 5843 5844 5843 5846 5849 5851 5853 5856 5857 5858 5860 5861 5863 5863 5861 5863 5865 5867 5867 5865 5867 5873 5877 5881 5883 5884 5886 5887 5887 5887 5885 5884 5886 5890 5894 5897 5899 5901 5903 5905 5906 5909 5910 5912 5914 5915 5916 5918 5920 5922 5923 5924 5926 5927 5929 5930 5931 5933 5934 5935 5936 5938 5939 5940
5780 5785 5790 5792 5794 5798 5801 5805 5809 5810 5811 5814 5817 5819 5823 5827 5829 5831 5834 5837 5839 5840 5840 5841 5842 5844 5846 5848 5850 5852 5853 5855 5856 5857 5860 5862 5860 5859 5861 5865 5867 5865 5865 5868 5873 5878 5879 5881 5884 5886 5886 5885 5882 5882 5886 5890 5894 5896 5898 5899 5901 5903 5905 5907 5909 5911 5913 5914 5916 5918 5920 5921 5923 5924 5925 5927 5928 5929 5931 5932 5933 5935 5936 5937 5937 5938
5778 5782 5785 5787 5791 5794 5796 5802 5806 5807 5808 5811 5813 5818 5823 5825 5825 5828 5831 5834 5836 5837 5838 5840 5841 5842 5843 5844 5847 5849 5850 5852 5853 5854 5856 5859 5859 5857 5857 5862 5866 5866 5865 5866 5871 5874 5875 5876 5879 5881 5883 5881 5878 5880 5885 5890 5893 5895 5897 5899 5901 5903 5905 5906 5908 5910 5912 5914 5916 5918 5919 5921 5923 5924 5925 5926 5927 5929 5930 5931 5932 5933 5934 5935 5936 5937
5774 5779 5781 5782 5787 5790 5791 5796 5801 5802 5804 5809 5812 5816 5819 5819 5820 5824 5828 5831 5833 5835 5837 5839 5840 5842 5842 5843 5845 5846 5848 5849 5850 5851 5853 5856 5857 5856 5856 5859 5863 5865 5865 5865 5869 5872 5873 5874 5876 5877 5880 5879 5875 5879 5885 5888 5892 5895 5897 5899 5900 5902 5904 5906 5908 5910 5912 5914 5916 5917 5919 5920 5922 5923 5925 5926 5927 5928 5929 5930 5931 5932 5933 5934 5935 5935
5768 5774 5779 5780 5782 5785 5785 5787 5793 5796 5799 5804 5808 5810 5813 5815 5818 5822 5825 5829 5831 5833 5835 5837 5838 5840 5842 5842 5842 5844 5845 5847 5847 5847 5850 5853 5853 5855 5855 5856 5859 5862 5863 5864 5866 5870 5873 5874 5876 5878 5880 5878 5874 5877 5884 5887 5891 5894 5896 5898 5900 5902 5904 5906 5908 5910 5912 5913 5915 5917 5918 5919 5921 5922 5924 5925 5926 5928 5928 5929 5930 5931 5932 5933 5934 5934
5762 5767 5774 5779 5779 5778 5776 5779 5787 5792 5795 5798 5802 5804 5806 5811 5815 5818 5821 5825 5828 5831 5834 5836 5837 5839 5842 5841 5841 5842 5842 5844 5845 5845 5848 5850 5851 5853 5854 5854 5857 5860 5862 5862 5864 5869 5872 5874 5876 5878 5879 5878 5874 5875 5882 5886 5889 5893 5895 5898 5900 5901 5903 5905 5907 5909 5911 5912 5914 5915 5917 5918 5920 5921 5922 5924 5925 5926 5927 5928 5929 5930 5931 5932 5932 5933
5756 5761 5766 5773 5776 5773 5771 5777 5785 5791 5793 5796 5799 5802 5803 5807 5812 5814 5817 5821 5824 5828 5831 5834 5838 5840 5839 5839 5841 5840 5839 5841 5843 5843 5846 5848 5849 5851 5852 5853 5855 5858 5860 5861 5863 5868 5871 5872 5875 5877 5878 5880 5877 5876 5881 5885 5888 5891 5894 5896 5898 5900 5902 5904 5906 5908 5909 5911 5912 5914 5915 5917 5918 5920 5921 5923 5924 5925 5926 5927 5928 5929 5929 5930 5931 5931
5750 5756 5760 5766 5771 5773 5773 5775 5780 5786 5791 5793 5796 5800 5802 5804 5808 5811 5814 5818 5820 5824 5828 5832 5836 5838 5836 5837 5840 5839 5837 5839 5841 5842 5843 5847 5849 5850 5850 5851 5853 5854 5858 5860 5862 5867 5870 5871 5874 5877 5878 5881 5879 5877 5880 5884 5887 5890 5892 5894 5897 5899 5901 5903 5904 5906 5908 5909 5911 5912 5914 5915 5917 5918 5920 5921 5922 5923 5924 5925 5926 5927 5928 5928 5929 5929
5744 5748 5753 5759 5766 5772 5775 5773 5774 5779 5785 5787 5790 5795 5799 5801 5805 5809 5813 5816 5818 5821 5825 5829 5832 5833 5832 5834 5836 5835 5836 5839 5839 5840 5842 5845 5848 5849 5849 5850 5851 5851 5856 5860 5860 5864 5868 5870 5873 5875 5877 5879 5879 5878 5880 5884 5886 5888 5890 5893 5896 5898 5899 5901 5903 5904 5906 5908 5909 5911 5913 5914 5916 5917 5918 5920 5921 5922 5923 5924 5925 5925 5926 5926 5927 5928
5733 5738 5744 5751 5757 5764 5769 5769 5767 5770 5775 5781 5784 5788 5794 5799 5802 5806 5811 5814 5815 5818 5821 5825 5830 5830 5827 5829 5832 5832 5835 5838 5837 5838 5842 5843 5846 5848 5848 5848 5849 5850 5854 5858 5858 5861 5866 5868 5871 5873 5875 5877 5877 5877 5880 5883 5885 5888 5890 5892 5895 5896 5898 5899 5901 5903 5905 5906 5908 5910 5911 5913 5914 5915 5917 5918 5919 5920 5921 5922 5923 5924 5924 5925 5926 5926
5722 5730 5735 5742 5750 5757 5761 5760 5760 5764 5769 5775 5780 5783 5789 5796 5800 5802 5806 5810 5811 5815 5818 5822 5828 5827 5822 5826 5831 5832 5835 5836 5834 5838 5841 5842 5844 5845 5845 5845 5847 5849 5853 5855 5857 5860 5864 5866 5869 5871 5873 5874 5875 5876 5879 5882 5884 5887 5889 5891 5893 5894 5896 5898 5900 5902 5903 5905 5907 5908 5910 5911 5912 5913 5914 5915 5917 5918 5919 5920 5921 5921 5922 5923 5924 5924
5716 5722 5725 5734 5745 5752 5757 5759 5761 5765 5767 5771 5777 5779 5783 5791 5797 5799 5802 5805 5808 5812 5815 5819 5824 5824 5821 5825 5830 5830 5832 5833 5833 5837 5839 5839 5840 5842 5841 5843 5846 5848 5850 5853 5856 5859 5863 5866 5868 5870 5871 5872 5874 5876 5878 5880 5883 5886 5888 5890 5891 5893 5894 5896 5898 5900 5902 5903 5905 5907 5909 5910 5911 5911 5912 5913 5914 5915 5916 5918 5918 5919 5920 5921 5922 5923
5712 5717 5723 5732 5740 5745 5751 5755 5758 5761 5764 5768 5774 5777 5780 5786 5793 5796 5798 5802 5807 5810 5813 5817 5820 5822 5822 5824 5826 5828 5830 5831 5833 5835 5836 5836 5837 5839 5841 5843 5845 5846 5849 5852 5854 5858 5863 5866 5867 5868 5869 5870 5872 5875 5877 5879 5882 5884 5886 5888 5890 5891 5893 5895 5896 5898 5900 5902 5904 5906 5907 5908 5908 5909 5910 5911 5912 5913 5914 5915 5916 5917 5918 5919 5920 5920
5701 5710 5720 5730 5736 5738 5743 5749 5753 5756 5758 5763 5770 5775 5779 5782 5787 5792 5795 5800 5804 5807 5812 5815 5817 5820 5821 5820 5822 5826 5829 5830 5831 5832 5832 5832 5834 5837 5840 5842 5843 5845 5847 5850 5852 5854 5859 5864 5865 5866 5867 5868 5870 5873 5875 5878 5880 5882 5885 5887 5888 5890 5892 5894 5896 5897 5899 5900 5902 5903 5904 5905 5906 5907 5907 5908 5910 5911 5912 5913 5914 5915 5916 5917 5918 5918
5693 5705 5717 5726 5732 5734 5738 5744 5749 5752 5754 5758 5765 5772 5777 5779 5783 5789 5794 5799 5801 5804 5809 5813 5814 5816 5817 5817 5820 5824 5826 5828 5828 5828 5828 5829 5833 5837 5839 5840 5842 5844 5846 5848 5850 5851 5855 5859 5861 5863 5864 5866 5869 5871 5873 5876 5878 5881 5883 5885 5887 5889 5891 5893 5894 5896 5897 5898 5900 5900 5901 5902 5904 5905 5905 5906 5908 5909 5910 5911 5912 5913 5914 5915 5915 5916
5691 5703 5712 5721 5725 5726 5732 5738 5742 5747 5752 5755 5761 5769 5775 5778 5781 5786 5791 5796 5799 5801 5806 5809 5811 5814 5814 5815 5818 5822 5824 5825 5825 5825 5826 5828 5831 5835 5838 5839 5841 5843 5845 5847 5848 5850 5851 5854 5857 5860 5862 5865 5867 5869 5871 5874 5876 5879 5881 5883 5886 5887 5889 5891 5893 5894 5896 5897 5898 5898 5898 5900 5901 5902 5903 5904 5905 5906 5907 5908 5909 5911 5912 5913 5913 5913
5689 5696 5704 5713 5717 5720 5728 5734 5738 5745 5750 5752 5756 5764 5772 5777 5780 5783 5787 5792 5796 5798 5801 5805 5808 5810 5812 5812 5814 5817 5820 5820 5821 5823 5825 5826 5828 5830 5833 5836 5838 5840 5842 5844 5846 5848 5849 5851 5855 5858 5860 5862 5865 5867 5869 5871 5873 5876 5879 5881 5883 5885 5887 5889 5891 5893 5894 5895 5896 5896 5897 5897 5898 5900 5901 5902 5903 5904 5905 5906 5907 5908 5910 5910 5911 5911
5680 5685 5693 5701 5708 5719 5728 5731 5735 5741 5742 5745 5750 5757 5767 5775 5779 5782 5784 5788 5793 5796 5799 5802 5803 5805 5809 5811 5811 5812 5815 5817 5820 5822 5824 5825 5826 5828 5831 5835 5837 5838 5840 5841 5843 5846 5848 5850 5853 5854 5857 5860 5862 5865 5867 5869 5871 5874 5876 5878 5880 5883 5885 5887 5888 5890 5892 5893 5894 5894 5895 5895 5895 5897 5898 5899 5901 5902 5903 5904 5905 5907 5908 5908 5908 5909
5669 5676 5684 5690 5701 5714 5722 5726 5731 5733 5733 5740 5748 5754 5762 5771 5777 5781 5783 5785 5789 5794 5797 5799 5799 5802 5806 5808 5807 5807 5811 5816 5819 5821 5822 5824 5827 5828 5831 5835 5837 5837 5838 5839 5841 5844 5846 5848 5849 5852 5855 5858 5860 5863 5865 5867 5869 5871 5873 5876 5878 5880 5883 5884 5886 5887 5889 5890 5891 5892 5893 5893 5893 5894 5895 5896 5898 5899 5901 5902 5903 5904 5905 5906 5906 5907
5665 5671 5678 5685 5695 5707 5715 5720 5724 5725 5728 5738 5748 5753 5758 5765 5771 5777 5781 5783 5786 5790 5794 5797 5798 5798 5799 5801 5802 5804 5808 5813 5816 5819 5821 5823 5825 5827 5830 5833 5834 5835 5836 5838 5839 5841 5844 5846 5847 5850 5854 5856 5858 5861 5863 5865 5867 5869 5871 5873 5876 5878 5880 5882 5883 5884 5886 5887 5888 5889 5890 5891 5891 5892 5892 5894 5895 5897 5899 5900 5901 5902 5903 5904 5905 5906
5664 5667 5674 5683 5693 5703 5710 5714 5716 5720 5728 5736 5743 5748 5753 5758 5761 5766 5773 5780 5785 5789 5791 5793 5792 5790 5791 5794 5797 5800 5804 5808 5813 5817 5819 5821 5825 5827 5828 5829 5831 5833 5835 5836 5836 5838 5841 5844 5846 5849 5852 5854 5856 5858 5861 5863 5865 5867 5869 5871 5873 5875 5877 5879 5881 5882 5883 5884 5885 5886 5887 5888 5889 5889 5890 5891 5893 5894 5896 5897 5898 5899 5900 5901 5903 5904
5663 5668 5673 5682 5691 5698 5704 5709 5713 5719 5726 5731 5737 5743 5748 5752 5756 5760 5766 5771 5776 5780 5782 5784 5785 5785 5786 5788 5791 5796 5801 5805 5810 5814 5817 5820 5823 5823 5822 5824 5827 5828 5829 5830 5831 5835 5840 5843 5845 5847 5850 5851 5853 5855 5858 5860 5862 5864 5866 5868 5870 5872 5874 5876 5878 5880 5881 5882 5882 5883 5884 5885 5886 5887 5888 5889 5890 5892 5893 5894 5896 5896 5897 5898 5900 5901
5662 5669 5672 5677 5684 5692 5698 5704 5709 5716 5721 5725 5732 5738 5740 5745 5751 5755 5758 5762 5766 5770 5774 5778 5781 5783 5783 5784 5786 5792 5797 5801 5805 5809 5813 5817 5817 5816 5818 5822 5824 5825 5826 5827 5831 5836 5840 5841 5843 5845 5847 5848 5850 5852 5854 5856 5858 5861 5863 5865 5867 5869 5871 5874 5876 5877 5878 5879 5880 5881 5881 5882 5883 5884 5885 5887 5889 5890 5891 5892 5893 5894 5895 5895 5897 5898
5660 5666 5671 5675 5681 5688 5694 5699 5706 5714 5719 5721 5728 5733 5734 5738 5744 5747 5751 5757 5762 5764 5768 5774 5777 5776 5776 5777 5780 5785 5791 5796 5800 5804 5809 5811 5811 5813 5818 5820 5821 5823 5825 5828 5832 5835 5837 5839 5840 5842 5844 5845 5847 5850 5851 5853 5855 5857 5859 5862 5864 5866 5868 5871 5873 5874 5875 5876 5878 5878 5879 5880 5881 5882 5883 5885 5886 5887 5888 5889 5890 5891 5892 5893 5894 5895
5655 5661 5667 5673 5678 5683 5690 5697 5705 5710 5712 5715 5723 5728 5726 5730 5738 5743 5746 5749 5751 5754 5759 5764 5766 5767 5768 5772 5777 5782 5787 5791 5793 5798 5804 5806 5809 5813 5815 5816 5818 5821 5823 5826 5829 5832 5834 5835 5837 5839 5841 5843 5845 5847 5849 5850 5852 5854 5856 5858 5860 5862 5865 5868 5870 5871 5872 5873 5875 5876 5877 5878 5879 5880 5881 5882 5883 5885 5885 5886 5888 5888 5889 5890 5891 5892
5652 5657 5662 5668 5676 5682 5687 5693 5700 5702 5703 5707 5713 5714 5714 5720 5730 5736 5740 5742 5743 5746 5750 5752 5754 5758 5763 5769 5774 5777 5781 5785 5790 5797 5802 5804 5808 5812 5813 5813 5816 5818 5820 5823 5826 5828 5830 5832 5834 5837 5838 5840 5843 5845 5846 5848 5850 5852 5853 5855 5857 5859 5862 5864 5865 5867 5868 5870 5872 5873 5874 5875 5876 5877 5878 5879 5881 5882 5883 5884 5885 5886 5887 5888 5888 5889
5649 5654 5658 5663 5671 5678 5682 5687 5691 5693 5696 5700 5703 5704 5708 5713 5719 5725 5732 5736 5737 5740 5743 5745 5749 5755 5761 5767 5771 5774 5779 5784 5789 5794 5798 5802 5806 5809 5809 5811 5813 5814 5817 5819 5821 5824 5826 5828 5831 5833 5835 5838 5841 5842 5844 5846 5847 5849 5851 5852 5854 5856 5857 5859 5861 5863 5865 5867 5869 5870 5871 5873 5874 5874 5876 5877 5878 5879 5880 5881 5882 5883 5884 5884 5885 5886
5645 5651 5655 5660 5667 5673 5677 5681 5683 5684 5687 5692 5696 5701 5705 5708 5711 5717 5724 5727 5729 5734 5738 5742 5747 5753 5757 5763 5768 5772 5776 5779 5783 5788 5793 5798 5802 5803 5805 5807 5810 5811 5813 5814 5817 5820 5823 5825 5827 5830 5832 5835 5837 5839 5841 5843 5844 5846 5848 5849 5851 5853 5854 5855 5858 5860 5861 5863 5865 5867 5868 5869 5870 5871 5873 5874 5874 5875 5877 5878 5879 5880 5881 5881 5882 5882
5641 5646 5650 5656 5662 5667 5672 5674 5676 5678 5681 5684 5689 5694 5697 5700 5705 5712 5718 5721 5726 5731 5735 5739 5744 5750 5755 5760 5765 5767 5770 5774 5779 5785 5789 5794 5797 5799 5802 5804 5806 5808 5810 5811 5814 5817 5819 5821 5824 5827 5829 5832 5833 5835 5837 5839 5841 5843 5844 5846 5848 5849 5851 5852 5854 5856 5858 5860 5861 5863 5864 5866 5867 5868 5869 5870 5870 5872 5873 5874 5875 5876 5877 5878 5878 5879
5638 5641 5645 5649 5654 5658 5662 5665 5669 5672 5674 5678 5684 5689 5692 5695 5701 5706 5712 5717 5721 5725 5729 5735 5741 5747 5752 5756 5759 5762 5766 5771 5776 5781 5785 5788 5792 5795 5798 5801 5803 5805 5806 5808 5811 5814 5815 5817 5820 5823 5826 5828 5830 5832 5834 5836 5838 5839 5841 5843 5845 5846 5847 5848 5850 5852 5854 5856 5857 5859 5860 5862 5863 5864 5865 5866 5867 5868 5869 5870 5871 5872 5873 5874 5874 5875
5633 5637 5641 5645 5649 5653 5658 5661 5665 5669 5671 5674 5680 5686 5689 5692 5697 5702 5708 5713 5716 5719 5725 5732 5737 5742 5746 5751 5755 5759 5763 5767 5771 5775 5780 5783 5786 5790 5793 5796 5799 5801 5803 5805 5808 5811 5812 5813 5817 5820 5822 5824 5826 5828 5830 5832 5834 5836 5838 5840 5841 5842 5843 5844 5846 5849 5850 5851 5853 5855 5856 5858 5859 5860 5861 5862 5863 5864 5865 5866 5867 5868 5869 5869 5870 5871
5629 5631 5634 5639 5644 5649 5654 5657 5660 5662 5664 5668 5674 5680 5684 5688 5693 5699 5706 5710 5713 5716 5721 5726 5730 5735 5741 5746 5751 5756 5760 5763 5766 5770 5775 5779 5782 5784 5788 5792 5794 5797 5799 5801 5804 5807 5808 5810 5813 5816 5818 5820 5823 5824 5826 5828 5831 5833 5834 5836 5837 5838 5840 5841 5843 5845 5846 5847 5849 5850 5852 5853 5854 5856 5857 5858 5859 5860 5861 5861 5862 5863 5864 5865 5865 5866
5624 5627 5631 5634 5637 5642 5647 5650 5653 5655 5659 5665 5672 5676 5679 5684 5691 5697 5701 5705 5709 5712 5716 5721 5725 5730 5736 5741 5746 5752 5756 5759 5762 5765 5770 5775 5777 5780 5784 5787 5790 5793 5795 5798 5800 5803 5804 5806 5808 5811 5814 5816 5818 5820 5822 5825 5827 5829 5830 5831 5833 5834 5836 5837 5839 5841 5842 5843 5844 5846 5847 5848 5850 5851 5852 5853 5854 5855 5855 5856 5857 5858 5859 5860 5861 5862
5621 5625 5628 5630 5632 5637 5644 5649 5652 5654 5659 5668 5675 5675 5674 5679 5686 5691 5695 5699 5704 5708 5712 5716 5721 5726 5731 5736 5742 5747 5751 5754 5757 5761 5765 5769 5773 5776 5779 5782 5785 5788 5791 5794 5796 5798 5800 5802 5804 5807 5810 5812 5814 5816 5818 5820 5822 5824 5826 5827 5829 5830 5832 5833 5835 5836 5838 5839 5840 5841 5843 5844 5845 5847 5847 5848 5849 5850 5851 5852 5853 5854 5855 5856 5856 5857
5619 5621 5623 5625 5628 5633 5638 5643 5645 5647 5652 5661 5667 5665 5664 5670 5679 5685 5690 5695 5700 5704 5708 5713 5718 5723 5727 5731 5737 5742 5746 5750 5753 5756 5760 5764 5769 5772 5774 5777 5780 5783 5786 5789 5791 5794 5796 5798 5800 5803 5806 5808 5810 5812 5814 5816 5818 5820 5822 5823 5825 5826 5828 5829 5830 5832 5833 5834 5835 5837 5839 5840 5841 5842 5842 5843 5844 5845 5846 5847 5848 5849 5850 5851 5851 5852
5615 5616 5617 5619 5622 5626 5629 5633 5636 5637 5641 5647 5649 5648 5652 5663 5674 5681 5686 5691 5695 5700 5705 5709 5714 5719 5723 5727 5732 5737 5741 5745 5749 5752 5756 5760 5763 5767 5770 5773 5775 5778 5781 5784 5786 5789 5791 5793 5796 5798 5801 5803 5805 5807 5810 5812 5814 5815 5817 5819 5820 5822 5824 5825 5826 5828 5829 5830 5831 5833 5834 5835 5836 5837 5837 5838 5839 5840 5842 5843 5844 5844 5845 5845 5846 5846